Time,TemperatureF,DewpointF,PressureIn,WindDirection,WindDirectionDegrees,WindSpeedMPH,WindSpeedGustMPH,Humidity,HourlyPrecipIn,Conditions,Clouds,dailyrainin,SoftwareType,DateUTC
2013-07-13 00:14:00,79.0,67.1,29.90,WNW,292,1.0,18.0,67,0.00,,,-99.99,Weather View 32 v60,2013-07-13 05:14:00,
2013-07-13 00:30:00,78.0,66.1,29.91,SSW,202,0.0,15.0,67,0.00,,,-99.99,Weather View 32 v60,2013-07-13 05:30:00,
2013-07-13 00:44:00,78.0,66.1,29.91,SSE,157,5.0,15.0,67,0.00,,,-99.99,Weather View 32 v60,2013-07-13 05:44:00,
2013-07-13 00:54:00,78.0,66.1,29.91,SSE,157,5.0,15.0,67,0.00,,,-99.99,Weather View 32 v60,2013-07-13 05:54:00,
2013-07-13 00:59:00,78.0,66.1,29.92,SW,225,2.0,15.0,67,0.00,,,-99.99,Weather View 32 v60,2013-07-13 05:59:00,
2013-07-13 01:14:00,77.0,65.2,29.93,West,270,3.0,15.0,67,0.00,,,-99.99,Weather View 32 v60,2013-07-13 06:14:00,
2013-07-13 01:29:00,77.0,64.7,29.93,North,360,1.0,12.0,66,0.00,,,-99.99,Weather View 32 v60,2013-07-13 06:29:00,
2013-07-13 01:44:00,77.0,64.7,29.93,SSE,157,0.0,13.0,66,0.00,,,-99.99,Weather View 32 v60,2013-07-13 06:44:00,
2013-07-13 01:59:00,77.0,64.7,29.92,SSE,157,2.0,13.0,66,0.00,,,-99.99,Weather View 32 v60,2013-07-13 06:59:00,
2013-07-13 02:14:00,77.0,64.7,29.92,South,180,0.0,13.0,66,0.00,,,-99.99,Weather View 32 v60,2013-07-13 07:14:00,
2013-07-13 02:29:00,76.0,63.8,29.92,SW,225,9.0,13.0,66,0.00,,,-99.99,Weather View 32 v60,2013-07-13 07:29:00,
2013-07-13 02:44:00,76.0,63.8,29.92,SSW,202,6.0,15.0,66,0.00,,,-99.99,Weather View 32 v60,2013-07-13 07:44:00,
2013-07-13 02:55:00,76.0,63.8,29.92,SSW,202,6.0,15.0,66,0.00,,,-99.99,Weather View 32 v60,2013-07-13 07:55:00,
2013-07-13 03:14:00,76.0,64.2,29.92,WNW,292,3.0,15.0,67,0.00,,,-99.99,Weather View 32 v60,2013-07-13 08:14:00,
2013-07-13 03:29:00,76.0,64.2,29.92,WSW,247,1.0,15.0,67,0.00,,,-99.99,Weather View 32 v60,2013-07-13 08:29:00,
2013-07-13 03:44:00,75.0,62.8,29.93,SW,225,1.0,15.0,66,0.00,,,-99.99,Weather View 32 v60,2013-07-13 08:44:00,
2013-07-13 03:56:00,75.0,62.8,29.93,SW,225,1.0,15.0,66,0.00,,,-99.99,Weather View 32 v60,2013-07-13 08:56:00,
2013-07-13 04:14:00,75.0,63.7,29.92,SW,225,3.0,14.0,68,0.00,,,-99.99,Weather View 32 v60,2013-07-13 09:14:00,
2013-07-13 04:29:00,74.0,62.7,29.92,West,270,7.0,13.0,68,0.00,,,-99.99,Weather View 32 v60,2013-07-13 09:29:00,
2013-07-13 04:44:00,74.0,62.7,29.93,South,180,0.0,13.0,68,0.00,,,-99.99,Weather View 32 v60,2013-07-13 09:44:00,
2013-07-13 04:57:00,74.0,62.7,29.93,South,180,0.0,13.0,68,0.00,,,-99.99,Weather View 32 v60,2013-07-13 09:57:00,
2013-07-13 05:14:00,74.0,62.7,29.93,SSW,202,0.0,10.0,68,0.00,,,-99.99,Weather View 32 v60,2013-07-13 10:14:00,
2013-07-13 05:29:00,74.0,63.1,29.93,SW,225,2.0,13.0,69,0.00,,,-99.99,Weather View 32 v60,2013-07-13 10:29:00,
2013-07-13 05:44:00,73.0,62.6,29.93,NW,315,0.0,13.0,70,0.00,,,-99.99,Weather View 32 v60,2013-07-13 10:44:00,
2013-07-13 05:57:00,73.0,62.6,29.93,NW,315,0.0,13.0,70,0.00,,,-99.99,Weather View 32 v60,2013-07-13 10:57:00,
2013-07-13 06:14:00,73.0,63.0,29.93,SW,225,0.0,13.0,71,0.00,,,-99.99,Weather View 32 v60,2013-07-13 11:14:00,
2013-07-13 06:29:00,73.0,63.4,29.93,SW,225,0.0,13.0,72,0.00,,,-99.99,Weather View 32 v60,2013-07-13 11:29:00,
2013-07-13 06:44:00,73.0,63.4,29.94,SW,225,0.0,13.0,72,0.00,,,-99.99,Weather View 32 v60,2013-07-13 11:44:00,
2013-07-13 06:58:00,73.0,63.4,29.94,SW,225,0.0,13.0,72,0.00,,,-99.99,Weather View 32 v60,2013-07-13 11:58:00,
2013-07-13 07:14:00,73.0,63.4,29.93,SW,225,0.0,13.0,72,0.00,,,-99.99,Weather View 32 v60,2013-07-13 12:14:00,
2013-07-13 07:29:00,74.0,64.0,29.93,SW,225,0.0,14.0,71,0.00,,,-99.99,Weather View 32 v60,2013-07-13 12:29:00,
2013-07-13 07:44:00,73.0,63.4,29.93,SSW,202,6.0,14.0,72,0.00,,,-99.99,Weather View 32 v60,2013-07-13 12:44:00,
2013-07-13 07:58:00,73.0,63.4,29.93,SSW,202,6.0,14.0,72,0.00,,,-99.99,Weather View 32 v60,2013-07-13 12:58:00,
2013-07-13 08:14:00,73.0,63.8,29.94,SSW,202,6.0,14.0,73,0.00,,,-99.99,Weather View 32 v60,2013-07-13 13:14:00,
2013-07-13 08:29:00,75.0,64.9,29.94,WSW,247,0.0,13.0,71,0.00,,,-99.99,Weather View 32 v60,2013-07-13 13:29:00,
2013-07-13 08:44:00,76.0,65.5,29.93,West,270,1.0,13.0,70,0.00,,,-99.99,Weather View 32 v60,2013-07-13 13:44:00,
2013-07-13 08:59:00,76.0,65.5,29.93,West,270,1.0,13.0,70,0.00,,,-99.99,Weather View 32 v60,2013-07-13 13:59:00,
2013-07-13 09:14:00,79.0,66.6,29.92,SSW,202,2.0,12.0,66,0.00,,,-99.99,Weather View 32 v60,2013-07-13 14:14:00,
2013-07-13 09:29:00,80.0,67.1,29.92,ESE,112,4.0,10.0,65,0.00,,,-99.99,Weather View 32 v60,2013-07-13 14:29:00,
2013-07-13 09:44:00,79.0,67.1,29.92,WSW,247,3.0,10.0,67,0.00,,,-99.99,Weather View 32 v60,2013-07-13 14:44:00,
2013-07-13 10:00:00,81.0,68.5,29.91,SSW,202,0.0,10.0,66,0.00,,,-99.99,Weather View 32 v60,2013-07-13 15:00:00,
2013-07-13 10:14:00,82.0,68.6,29.90,West,270,0.0,10.0,64,0.00,,,-99.99,Weather View 32 v60,2013-07-13 15:14:00,
2013-07-13 10:29:00,83.0,69.5,29.90,SSE,157,4.0,10.0,64,0.00,,,-99.99,Weather View 32 v60,2013-07-13 15:29:00,
2013-07-13 10:44:00,86.0,70.9,29.88,WSW,247,0.0,10.0,61,0.00,,,-99.99,Weather View 32 v60,2013-07-13 15:44:00,
2013-07-13 11:00:00,85.0,70.9,29.89,WSW,247,0.0,10.0,63,0.00,,,-99.99,Weather View 32 v60,2013-07-13 16:00:00,
2013-07-13 11:14:00,85.0,71.4,29.89,SSE,157,0.0,14.0,64,0.00,,,-99.99,Weather View 32 v60,2013-07-13 16:14:00,
2013-07-13 11:29:00,87.0,71.9,29.87,SSE,157,3.0,14.0,61,0.00,,,-99.99,Weather View 32 v60,2013-07-13 16:29:00,
2013-07-13 11:44:00,88.0,70.8,29.88,WNW,292,0.0,14.0,57,0.00,,,-99.99,Weather View 32 v60,2013-07-13 16:44:00,
2013-07-13 11:59:00,88.0,72.8,29.87,SE,135,0.0,14.0,61,0.00,,,-99.99,Weather View 32 v60,2013-07-13 16:59:00,
2013-07-13 12:14:00,89.0,72.2,29.87,West,270,0.0,12.0,58,0.00,,,-99.99,Weather View 32 v60,2013-07-13 17:14:00,
2013-07-13 12:29:00,88.0,72.8,29.87,West,270,0.0,12.0,61,0.00,,,-99.99,Weather View 32 v60,2013-07-13 17:29:00,
2013-07-13 12:44:00,90.0,72.6,29.86,ENE,67,0.0,12.0,57,0.00,,,-99.99,Weather View 32 v60,2013-07-13 17:44:00,
2013-07-13 12:59:00,90.0,72.1,29.86,ESE,112,0.0,9.0,56,0.00,,,-99.99,Weather View 32 v60,2013-07-13 17:59:00,
2013-07-13 13:14:00,92.0,71.8,29.85,East,90,0.0,8.0,52,0.00,,,-99.99,Weather View 32 v60,2013-07-13 18:14:00,
2013-07-13 13:29:00,90.0,71.0,29.85,WNW,292,0.0,7.0,54,0.00,,,-99.99,Weather View 32 v60,2013-07-13 18:29:00,
2013-07-13 13:44:00,92.0,71.8,29.85,SW,225,0.0,6.0,52,0.00,,,-99.99,Weather View 32 v60,2013-07-13 18:44:00,
2013-07-13 13:59:00,92.0,71.8,29.85,NW,315,0.0,0.0,52,0.00,,,-99.99,Weather View 32 v60,2013-07-13 18:59:00,
2013-07-13 14:14:00,92.0,72.9,29.85,NE,45,0.0,0.0,54,0.00,,,-99.99,Weather View 32 v60,2013-07-13 19:14:00,
2013-07-13 14:29:00,92.0,72.9,29.85,West,270,0.0,0.0,54,0.00,,,-99.99,Weather View 32 v60,2013-07-13 19:29:00,
2013-07-13 14:44:00,91.0,72.5,29.85,ESE,112,0.0,0.0,55,0.00,,,-99.99,Weather View 32 v60,2013-07-13 19:44:00,
2013-07-13 14:59:00,90.0,73.7,29.86,SSE,157,0.0,7.0,59,0.00,,,-99.99,Weather View 32 v60,2013-07-13 19:59:00,
2013-07-13 15:14:00,92.0,73.4,29.85,SSE,157,0.0,7.0,55,0.00,,,-99.99,Weather View 32 v60,2013-07-13 20:14:00,
2013-07-13 15:29:00,91.0,73.1,29.85,South,180,7.0,8.0,56,0.00,,,-99.99,Weather View 32 v60,2013-07-13 20:29:00,
2013-07-13 15:44:00,90.0,73.2,29.86,SSW,202,1.0,8.0,58,0.00,,,-99.99,Weather View 32 v60,2013-07-13 20:44:00,
2013-07-13 15:59:00,89.0,72.2,29.87,WSW,247,0.0,9.0,58,0.00,,,-99.99,Weather View 32 v60,2013-07-13 20:59:00,
2013-07-13 16:14:00,88.0,72.3,29.87,NW,315,0.0,13.0,60,0.00,,,-99.99,Weather View 32 v60,2013-07-13 21:14:00,
2013-07-13 16:29:00,87.0,71.9,29.87,SSW,202,3.0,13.0,61,0.00,,,-99.99,Weather View 32 v60,2013-07-13 21:29:00,
2013-07-13 16:44:00,88.0,72.3,29.87,South,180,0.0,13.0,60,0.00,,,-99.99,Weather View 32 v60,2013-07-13 21:44:00,
2013-07-13 16:59:00,88.0,71.3,29.87,SE,135,0.0,13.0,58,0.00,,,-99.99,Weather View 32 v60,2013-07-13 21:59:00,
2013-07-13 17:14:00,88.0,71.8,29.86,North,360,0.0,13.0,59,0.00,,,-99.99,Weather View 32 v60,2013-07-13 22:14:00,
2013-07-13 17:29:00,87.0,71.4,29.86,SW,225,2.0,16.0,60,0.00,,,-99.99,Weather View 32 v60,2013-07-13 22:29:00,
2013-07-13 17:44:00,87.0,71.9,29.86,SSE,157,0.0,16.0,61,0.00,,,-99.99,Weather View 32 v60,2013-07-13 22:44:00,
2013-07-13 17:59:00,87.0,71.9,29.86,West,270,0.0,16.0,61,0.00,,,-99.99,Weather View 32 v60,2013-07-13 22:59:00,
2013-07-13 18:14:00,87.0,72.3,29.86,South,180,0.0,16.0,62,0.00,,,-99.99,Weather View 32 v60,2013-07-13 23:14:00,
2013-07-13 18:29:00,86.0,71.9,29.86,South,180,3.0,14.0,63,0.00,,,-99.99,Weather View 32 v60,2013-07-13 23:29:00,
2013-07-13 18:44:00,86.0,71.9,29.85,ENE,67,1.0,14.0,63,0.00,,,-99.99,Weather View 32 v60,2013-07-13 23:44:00,
2013-07-13 18:59:00,85.0,71.4,29.87,SE,135,0.0,14.0,64,0.00,,,-99.99,Weather View 32 v60,2013-07-13 23:59:00,
2013-07-13 19:05:00,85.0,71.4,29.87,SE,135,0.0,14.0,64,0.00,,,-99.99,Weather View 32 v60,2013-07-14 00:05:00,
2013-07-13 19:14:00,85.0,71.9,29.87,SSE,157,5.0,14.0,65,0.00,,,-99.99,Weather View 32 v60,2013-07-14 00:14:00,
2013-07-13 19:29:00,84.0,71.8,29.87,ESE,112,5.0,14.0,67,0.00,,,-99.99,Weather View 32 v60,2013-07-14 00:29:00,
2013-07-13 19:44:00,84.0,72.3,29.87,West,270,7.0,14.0,68,0.00,,,-99.99,Weather View 32 v60,2013-07-14 00:44:00,
2013-07-13 19:59:00,83.0,71.7,29.88,ESE,112,5.0,10.0,69,0.00,,,-99.99,Weather View 32 v60,2013-07-14 00:59:00,
2013-07-13 20:05:00,83.0,71.7,29.88,ESE,112,5.0,10.0,69,0.00,,,-99.99,Weather View 32 v60,2013-07-14 01:05:00,
2013-07-13 20:14:00,83.0,72.2,29.88,ESE,112,4.0,12.0,70,0.00,,,-99.99,Weather View 32 v60,2013-07-14 01:14:00,
2013-07-13 20:29:00,82.0,72.9,29.88,ESE,112,6.0,12.0,74,0.00,,,-99.99,Weather View 32 v60,2013-07-14 01:29:00,
2013-07-13 20:44:00,81.0,72.7,29.89,SSW,202,3.0,12.0,76,0.00,,,-99.99,Weather View 32 v60,2013-07-14 01:44:00,
2013-07-13 20:59:00,81.0,72.3,29.89,SE,135,1.0,15.0,75,0.00,,,-99.99,Weather View 32 v60,2013-07-14 01:59:00,
2013-07-13 21:06:00,81.0,72.3,29.89,SE,135,1.0,15.0,75,0.00,,,-99.99,Weather View 32 v60,2013-07-14 02:06:00,
2013-07-13 21:14:00,80.0,71.3,29.90,ESE,112,3.0,15.0,75,0.00,,,-99.99,Weather View 32 v60,2013-07-14 02:14:00,
2013-07-13 21:29:00,80.0,71.7,29.90,South,180,6.0,15.0,76,0.00,,,-99.99,Weather View 32 v60,2013-07-14 02:29:00,
2013-07-13 21:44:00,79.0,71.1,29.91,SSE,157,7.0,15.0,77,0.00,,,-99.99,Weather View 32 v60,2013-07-14 02:44:00,
2013-07-13 21:59:00,79.0,71.9,29.91,ESE,112,2.0,13.0,79,0.00,,,-99.99,Weather View 32 v60,2013-07-14 02:59:00,
2013-07-13 22:06:00,79.0,71.9,29.91,ESE,112,2.0,13.0,79,0.00,,,-99.99,Weather View 32 v60,2013-07-14 03:06:00,
2013-07-13 22:14:00,78.0,70.9,29.93,South,180,0.0,15.0,79,0.00,,,-99.99,Weather View 32 v60,2013-07-14 03:14:00,
2013-07-13 22:29:00,78.0,70.9,29.93,SSE,157,6.0,15.0,79,0.00,,,-99.99,Weather View 32 v60,2013-07-14 03:29:00,
2013-07-13 22:44:00,78.0,70.2,29.93,SE,135,0.0,15.0,77,0.00,,,-99.99,Weather View 32 v60,2013-07-14 03:44:00,
2013-07-13 22:59:00,78.0,70.2,29.95,SW,225,0.0,15.0,77,0.00,,,-99.99,Weather View 32 v60,2013-07-14 03:59:00,
2013-07-13 23:07:00,78.0,70.2,29.95,SW,225,0.0,15.0,77,0.00,,,-99.99,Weather View 32 v60,2013-07-14 04:07:00,
2013-07-13 23:14:00,78.0,70.2,29.95,WSW,247,5.0,12.0,77,0.00,,,-99.99,Weather View 32 v60,2013-07-14 04:14:00,
2013-07-13 23:29:00,78.0,69.8,29.95,ESE,112,6.0,11.0,76,0.00,,,-99.99,Weather View 32 v60,2013-07-14 04:29:00,
2013-07-13 23:44:00,78.0,69.8,29.95,SSE,157,2.0,13.0,76,0.00,,,-99.99,Weather View 32 v60,2013-07-14 04:44:00,
2013-07-13 23:59:00,78.0,69.8,29.96,SSE,157,5.0,13.0,76,0.00,,,-99.99,Weather View 32 v60,2013-07-14 04:59:00,